This is the latest recevied weather packets stored in our database for station/object IK6IHU-3. If no packets are shown the sender has not sent any weather packets the latest 10 day(s).
| Time | Temp. | Humidity | Pressure | Rain* | Wind** | Luminosity | Snow |
|---|---|---|---|---|---|---|---|
| 1778331692 | 21.67° C | 47% | 1016 hPa | 0 mm | - | 0 W/m² | - |
| 1778331632 | 22.22° C | 48% | 1016 hPa | 0 mm | - | 0 W/m² | - |
| 1778331572 | 21.67° C | 46% | 1016.2 hPa | 0 mm | - | 0 W/m² | - |
| 1778331512 | 22.22° C | 48% | 1016 hPa | 0 mm | - | 0 W/m² | - |
| 1778331452 | 21.67° C | 48% | 1016.1 hPa | 0 mm | - | 0 W/m² | - |
| 1778331392 | 21.67° C | 47% | 1016.4 hPa | 0 mm | - | 0 W/m² | - |
| 1778331332 | 21.67° C | 48% | 1016.4 hPa | 0 mm | - | 0 W/m² | - |
| 1778331272 | 21.67° C | 48% | 1016.2 hPa | 0 mm | - | 0 W/m² | - |
| 1778331212 | 21.67° C | 45% | 1016.1 hPa | 0 mm | - | 0 W/m² | - |
| 1778331152 | 22.22° C | 47% | 1016.1 hPa | 0 mm | - | 0 W/m² | - |
| 1778331092 | 21.67° C | 45% | 1016.3 hPa | 0 mm | - | 0 W/m² | - |
| 1778331032 | 21.67° C | 47% | 1016.2 hPa | 0 mm | - | 0 W/m² | - |
| 1778330972 | 22.22° C | 47% | 1016.2 hPa | 0 mm | - | 0 W/m² | - |
| 1778330912 | 22.22° C | 46% | 1016.3 hPa | 0 mm | - | 0 W/m² | - |
| 1778330852 | 22.22° C | 45% | 1016.3 hPa | 0 mm | - | 0 W/m² | - |
| 1778330792 | 22.78° C | 48% | 1016.3 hPa | 0 mm | - | 0 W/m² | - |
| 1778330732 | 22.22° C | 46% | 1016.3 hPa | 0 mm | - | 0 W/m² | - |
| 1778330672 | 22.22° C | 46% | 1016.4 hPa | 0 mm | - | 0 W/m² | - |
| 1778330612 | 22.22° C | 47% | 1016.5 hPa | 0 mm | - | 0 W/m² | - |
| 1778330552 | 22.22° C | 46% | 1016.4 hPa | 0 mm | - | 0 W/m² | - |
| 1778330492 | 22.22° C | 47% | 1016.4 hPa | 0 mm | - | 0 W/m² | - |
| 1778330432 | 22.22° C | 49% | 1016.6 hPa | 0 mm | - | 0 W/m² | - |
| 1778330372 | 22.22° C | 48% | 1016.2 hPa | 0 mm | - | 0 W/m² | - |
| 1778330312 | 21.67° C | 48% | 1016.2 hPa | 0 mm | - | 0 W/m² | - |
| 1778330252 | 21.67° C | 49% | 1016.5 hPa | 0 mm | - | 0 W/m² | - |
* Rain latest hour (hover to see other rain measurements)
** Current wind speed in m/s (hover to see current wind gust speed)